QPF
0.00 0.00 0.00 0.00 0.00 0.00 0.00 0.00 0.00 0.00 0.00 0.00 0.00 0.00 0.00 0.00 0.01 0.04 0.01 0.00 0.00 0.00 0.00 0.00 0.00 0.00 0.01 0.01 0.01 0.01 0.02 0.02 0.01 0.01 0.01 0.01 0.00 0.00 0.00 0.00 0.00 0.00 0.00 0.00 0.00 0.00 0.00 0.00 0.00
0.00 0.00 0.00 0.00 0.00 0.00 0.00 0.00 0.00 0.00 0.00 0.00 0.00 0.00 0.00 0.00 0.00 0.00 0.00 0.00 0.00 0.00 0.00 0.00 0.00 0.00 0.00 0.00 0.01 0.01 0.02 0.01 0.01 0.01 0.01 0.01 0.01 0.01 0.01 0.00 0.01 0.01 0.00 0.00 0.00 0.00 0.00 0.00 0.00
0.00 0.00 0.00 0.00 0.00 0.00 0.00 0.00 0.00 0.00 0.00 0.00 0.00 0.00 0.00 0.00 0.00 0.00 0.00 0.00 0.00 0.00 0.00 0.00 0.00 0.00 0.00 0.00 0.01 0.01 0.01 0.01 0.01 0.01 0.01 0.01 0.01 0.00 0.00 0.00 0.00 0.01 0.00 0.00 0.01 0.00 0.00 0.00 0.00
0.00 0.00 0.00 0.00 0.00 0.00 0.00 0.00 0.00 0.00 0.00 0.00 0.00 0.00 0.00 0.00 0.00 0.00 0.00 0.00 0.00 0.00 0.00 0.00 0.00 0.00 0.00 0.00 0.00 0.01 0.01 0.01 0.01 0.01 0.00 0.00 0.00 0.00 0.00 0.00 0.00 0.00 0.00 0.00 0.01 0.01 0.00 0.00 0.00
0.00 0.00 0.00 0.00 0.00 0.00 0.00 0.00 0.00 0.00 0.00 0.00 0.00 0.00 0.00 0.00 0.00 0.00 0.00 0.00 0.00 0.00 0.00 0.00 0.00 0.00 0.00 0.00 0.00 0.01 0.01 0.01 0.01 0.01 0.00 0.00 0.00 0.00 0.00 0.00 0.00 0.00 0.00 0.00 0.00 0.00 0.00 0.00 0.00
0.00 0.00 0.00 0.00 0.00 0.00 0.00 0.00 0.00 0.00 0.00 0.00 0.00 0.00 0.00 0.00 0.00 0.00 0.00 0.00 0.00 0.00 0.00 0.00 0.00 0.00 0.00 0.00 0.00 0.00 0.00 0.01 0.01 0.00 0.00 0.00 0.00 0.00 0.00 0.00 0.00 0.00 0.00 0.00 0.00 0.00 0.00 0.00 0.00
0.00 0.00 0.00 0.00 0.00 0.00 0.00 0.00 0.00 0.00 0.00 0.00 0.00 0.00 0.00 0.00 0.00 0.00 0.00 0.00 0.00 0.00 0.00 0.00 0.00 0.00 0.00 0.00 0.00 0.00 0.00 0.00 0.00 0.00 0.00 0.00 0.00 0.00 0.00 0.00 0.00 0.00 0.00 0.00 0.00 0.00 0.00 0.00 0.00
0.00 0.00 0.00 0.00 0.00 0.00 0.00 0.00 0.00 0.00 0.00 0.00 0.00 0.00 0.00 0.00 0.00 0.00 0.00 0.00 0.00 0.00 0.00 0.00 0.00 0.00 0.00 0.00 0.00 0.00 0.00 0.00 0.00 0.00 0.00 0.00 0.00 0.00 0.00 0.00 0.00 0.00 0.00 0.00 0.00 0.00 0.00 0.00 0.00
0.00 0.00 0.00 0.00 0.00 0.00 0.00 0.00 0.00 0.00 0.00 0.00 0.00 0.00 0.00 0.00 0.00 0.00 0.00 0.00 0.00 0.00 0.00 0.00 0.00 0.00 0.00 0.00 0.00 0.00 0.00 0.00 0.00 0.00 0.00 0.00 0.00 0.00 0.00 0.00 0.00 0.00 0.00 0.00 0.00 0.00 0.00 0.00 0.00
0.00 0.00 0.00 0.00 0.00 0.00 0.00 0.00 0.00 0.00 0.00 0.00 0.00 0.00 0.00 0.00 0.00 0.00 0.00 0.00 0.00 0.00 0.00 0.00 0.00 0.00 0.00 0.00 0.00 0.00 0.00 0.00 0.00 0.00 0.00 0.00 0.00 0.00 0.00 0.00 0.00 0.00 0.00 0.00 0.00 0.00 0.00 0.00 0.00
0.00 0.00 0.00 0.00 0.00 0.00 0.00 0.00 0.00 0.00 0.00 0.00 0.00 0.00 0.00 0.00 0.00 0.00 0.00 0.00 0.00 0.00 0.00 0.00 0.00 0.00 0.00 0.00 0.00 0.00 0.00 0.00 0.00 0.00 0.00 0.00 0.00 0.00 0.00 0.00 0.00 0.00 0.00 0.00 0.00 0.00 0.00 0.00 0.00
0.00 0.00 0.00 0.00 0.00 0.00 0.00 0.00 0.00 0.00 0.00 0.00 0.00 0.00 0.00 0.00 0.00 0.00 0.00 0.00 0.00 0.00 0.00 0.00 0.00 0.00 0.00 0.00 0.00 0.00 0.00 0.00 0.00 0.00 0.00 0.00 0.00 0.00 0.00 0.00 0.00 0.00 0.00 0.00 0.00 0.00 0.00 0.00 0.00
0.00 0.00 0.00 0.00 0.00 0.00 0.00 0.00 0.00 0.00 0.00 0.00 0.00 0.00 0.00 0.00 0.00 0.00 0.00 0.00 0.00 0.00 0.00 0.00 0.00 0.00 0.00 0.00 0.00 0.00 0.00 0.00 0.00 0.00 0.00 0.00 0.00 0.00 0.00 0.00 0.00 0.00 0.00 0.00 0.00 0.00 0.00 0.00 0.00
0.00 0.00 0.00 0.00 0.00 0.00 0.00 0.00 0.00 0.00 0.00 0.00 0.00 0.00 0.00 0.00 0.00 0.00 0.00 0.00 0.00 0.00 0.00 0.00 0.00 0.00 0.00 0.00 0.00 0.00 0.00 0.00 0.00 0.00 0.00 0.00 0.00 0.00 0.00 0.00 0.00 0.00 0.00 0.00 0.00 0.00 0.00 0.00 0.00
0.00 0.00 0.00 0.00 0.00 0.00 0.00 0.00 0.00 0.00 0.00 0.00 0.00 0.00 0.00 0.00 0.00 0.00 0.00 0.00 0.00 0.00 0.00 0.00 0.00 0.00 0.00 0.00 0.00 0.00 0.00 0.00 0.00 0.00 0.00 0.00 0.00 0.00 0.00 0.00 0.00 0.00 0.00 0.00 0.00 0.00 0.00 0.00 0.00
0.00 0.00 0.00 0.00 0.00 0.00 0.00 0.00 0.00 0.00 0.00 0.00 0.00 0.00 0.00 0.00 0.00 0.00 0.00 0.00 0.00 0.00 0.00 0.00 0.00 0.00 0.00 0.00 0.00 0.00 0.00 0.00 0.00 0.00 0.00 0.00 0.00 0.00 0.00 0.00 0.00 0.00 0.00 0.00 0.00 0.00 0.00 0.00 0.00
0.00 0.00 0.00 0.00 0.00 0.00 0.00 0.00 0.00 0.00 0.00 0.00 0.00 0.00 0.00 0.00 0.00 0.00 0.00 0.00 0.00 0.00 0.00 0.00 0.00 0.00 0.00 0.00 0.00 0.00 0.00 0.00 0.00 0.00 0.00 0.00 0.00 0.00 0.00 0.00 0.00 0.00 0.00 0.00 0.00 0.00 0.00 0.00 0.00
0.00 0.00 0.00 0.00 0.00 0.00 0.00 0.00 0.00 0.00 0.00 0.00 0.00 0.00 0.00 0.00 0.00 0.00 0.00 0.00 0.00 0.00 0.00 0.00 0.00 0.00 0.00 0.00 0.00 0.00 0.00 0.00 0.00 0.00 0.00 0.00 0.00 0.00 0.00 0.00 0.00 0.00 0.00 0.00 0.00 0.00 0.00 0.00 0.00
0.00 0.00 0.00 0.00 0.00 0.00 0.00 0.00 0.00 0.00 0.00 0.00 0.00 0.00 0.00 0.00 0.00 0.00 0.00 0.00 0.00 0.00 0.00 0.00 0.00 0.00 0.00 0.00 0.00 0.01 0.01 0.01 0.01 0.00 0.00 0.00 0.00 0.00 0.00 0.00 0.00 0.00 0.00 0.00 0.00 0.00 0.00 0.00 0.00
0.00 0.00 0.00 0.00 0.00 0.00 0.00 0.00 0.00 0.00 0.00 0.00 0.00 0.00 0.00 0.00 0.00 0.00 0.00 0.00 0.00 0.00 0.00 0.00 0.00 0.00 0.00 0.00 0.00 0.00 0.00 0.00 0.01 0.01 0.01 0.01 0.01 0.01 0.01 0.01 0.01 0.00 0.00 0.00 0.00 0.00 0.00 0.00 0.00
0.00 0.00 0.00 0.00 0.00 0.00 0.00 0.00 0.00 0.00 0.00 0.00 0.00 0.00 0.00 0.00 0.00 0.00 0.00 0.00 0.00 0.00 0.00 0.00 0.00 0.00 0.00 0.00 0.00 0.00 0.01 0.01 0.01 0.01 0.01 0.01 0.01 0.01 0.01 0.01 0.01 0.01 0.01 0.01 0.01 0.00 0.01 0.01 0.00
0.00 0.00 0.00 0.00 0.00 0.00 0.00 0.00 0.00 0.00 0.00 0.00 0.00 0.00 0.00 0.00 0.00 0.00 0.00 0.00 0.00 0.00 0.00 0.00 0.00 0.00 0.00 0.00 0.00 0.00 0.00 0.00 0.00 0.01 0.01 0.01 0.01 0.01 0.01 0.01 0.01 0.01 0.01 0.01 0.01 0.00 0.01 0.01 0.01
0.00 0.00 0.00 0.00 0.00 0.00 0.00 0.00 0.00 0.00 0.00 0.00 0.00 0.00 0.00 0.00 0.00 0.00 0.00 0.00 0.00 0.00 0.00 0.00 0.00 0.00 0.00 0.00 0.00 0.00 0.00 0.00 0.00 0.00 0.01 0.01 0.01 0.02 0.02 0.01 0.01 0.01 0.01 0.01 0.01 0.01 0.01 0.01 0.01
0.00 0.00 0.00 0.00 0.00 0.00 0.00 0.00 0.00 0.00 0.00 0.00 0.00 0.00 0.00 0.00 0.00 0.00 0.00 0.00 0.00 0.00 0.00 0.00 0.00 0.00 0.00 0.00 0.00 0.00 0.00 0.00 0.00 0.00 0.01 0.01 0.01 0.01 0.01 0.01 0.01 0.01 0.01 0.01 0.01 0.01 0.01 0.01 0.01
0.00 0.00 0.00 0.00 0.00 0.00 0.00 0.00 0.00 0.00 0.00 0.00 0.00 0.00 0.00 0.00 0.00 0.00 0.00 0.00 0.00 0.00 0.00 0.00 0.00 0.00 0.00 0.00 0.00 0.00 0.00 0.00 0.00 0.00 0.00 0.00 0.01 0.01 0.01 0.01 0.01 0.01 0.01 0.01 0.01 0.01 0.01 0.01 0.01
0.00 0.00 0.00 0.00 0.00 0.00 0.00 0.00 0.00 0.00 0.00 0.00 0.00 0.00 0.00 0.00 0.00 0.00 0.00 0.00 0.00 0.00 0.00 0.00 0.00 0.00 0.00 0.00 0.00 0.00 0.00 0.00 0.00 0.00 0.00 0.00 0.00 0.00 0.00 0.00 0.01 0.01 0.01 0.01 0.01 0.01 0.01 0.01 0.01
0.00 0.00 0.00 0.00 0.00 0.00 0.00 0.00 0.00 0.00 0.00 0.00 0.00 0.00 0.00 0.00 0.00 0.00 0.00 0.00 0.00 0.00 0.00 0.00 0.00 0.00 0.00 0.00 0.00 0.00 0.00 0.00 0.00 0.00 0.00 0.00 0.00 0.00 0.00 0.00 0.00 0.00 0.00 0.00 0.00 0.00 0.00 0.00 0.00
0.00 0.00 0.00 0.00 0.00 0.00 0.00 0.00 0.00 0.00 0.00 0.00 0.00 0.00 0.00 0.00 0.00 0.00 0.00 0.00 0.00 0.00 0.00 0.00 0.00 0.00 0.00 0.00 0.00 0.00 0.00 0.00 0.00 0.00 0.00 0.00 0.00 0.00 0.00 0.00 0.00 0.00 0.00 0.00 0.00 0.00 0.00 0.00 0.00
0.00 0.00 0.00 0.00 0.00 0.00 0.00 0.00 0.00 0.00 0.00 0.00 0.00 0.00 0.00 0.00 0.00 0.00 0.00 0.00 0.00 0.00 0.00 0.00 0.00 0.00 0.00 0.00 0.00 0.00 0.00 0.00 0.00 0.00 0.00 0.00 0.00 0.00 0.00 0.00 0.00 0.00 0.00 0.00 0.00 0.00 0.00 0.00 0.00
0.00 0.00 0.00 0.00 0.00 0.00 0.00 0.00 0.00 0.00 0.00 0.00 0.00 0.00 0.00 0.00 0.00 0.00 0.00 0.00 0.00 0.00 0.00 0.00 0.00 0.00 0.00 0.00 0.00 0.00 0.00 0.00 0.00 0.00 0.00 0.00 0.00 0.00 0.00 0.00 0.00 0.00 0.00 0.00 0.00 0.00 0.00 0.00 0.00
MSLP
1012.42 1012.78 1013.35 1014.04 1014.75 1015.38 1015.85 1016.16 1016.30 1016.35 1016.36 1016.42 1016.56 1016.80 1017.12 1017.46 1017.78 1018.03 1018.19 1018.28 1018.34 1018.41 1018.54 1018.75 1019.06 1019.41 1019.78 1020.11 1020.37 1020.54 1020.64 1020.69 1020.74 1020.82 1020.96 1021.15 1021.37 1021.59 1021.79 1021.92 1021.99 1022.00 1021.98 1021.94 1021.92 1021.93 1021.95 1022.00 1022.04
1012.92 1013.35 1013.94 1014.60 1015.23 1015.75 1016.10 1016.27 1016.30 1016.25 1016.18 1016.18 1016.29 1016.51 1016.82 1017.17 1017.51 1017.80 1018.02 1018.19 1018.33 1018.49 1018.70 1018.98 1019.32 1019.70 1020.07 1020.38 1020.63 1020.79 1020.89 1020.96 1021.04 1021.16 1021.33 1021.55 1021.78 1022.01 1022.19 1022.31 1022.36 1022.37 1022.35 1022.34 1022.34 1022.38 1022.43 1022.50 1022.55
1013.60 1014.06 1014.62 1015.19 1015.69 1016.06 1016.25 1016.27 1016.18 1016.04 1015.92 1015.90 1016.00 1016.22 1016.55 1016.92 1017.30 1017.64 1017.92 1018.16 1018.39 1018.63 1018.91 1019.25 1019.63 1020.02 1020.39 1020.70 1020.94 1021.10 1021.21 1021.30 1021.41 1021.56 1021.74 1021.97 1022.19 1022.39 1022.54 1022.63 1022.67 1022.67 1022.67 1022.69 1022.74 1022.82 1022.91 1022.99 1023.05
1014.38 1014.83 1015.32 1015.77 1016.10 1016.29 1016.31 1016.20 1016.01 1015.81 1015.67 1015.65 1015.76 1016.01 1016.37 1016.77 1017.18 1017.56 1017.89 1018.19 1018.49 1018.79 1019.14 1019.53 1019.94 1020.35 1020.72 1021.04 1021.28 1021.45 1021.58 1021.70 1021.84 1022.00 1022.20 1022.40 1022.60 1022.76 1022.87 1022.93 1022.95 1022.97 1022.99 1023.05 1023.15 1023.28 1023.40 1023.51 1023.56
1015.17 1015.58 1015.96 1016.26 1016.42 1016.44 1016.31 1016.09 1015.83 1015.61 1015.49 1015.50 1015.66 1015.95 1016.33 1016.75 1017.18 1017.57 1017.93 1018.26 1018.60 1018.95 1019.35 1019.77 1020.21 1020.64 1021.03 1021.36 1021.62 1021.82 1021.98 1022.12 1022.28 1022.46 1022.66 1022.85 1023.02 1023.15 1023.22 1023.26 1023.27 1023.29 1023.35 1023.45 1023.60 1023.76 1023.92 1024.03 1024.09
1015.83 1016.18 1016.44 1016.59 1016.60 1016.47 1016.24 1015.96 1015.69 1015.50 1015.44 1015.51 1015.73 1016.06 1016.46 1016.89 1017.30 1017.68 1018.03 1018.37 1018.71 1019.09 1019.51 1019.96 1020.43 1020.88 1021.28 1021.63 1021.91 1022.13 1022.32 1022.51 1022.70 1022.90 1023.11 1023.30 1023.45 1023.55 1023.61 1023.63 1023.64 1023.67 1023.76 1023.89 1024.07 1024.27 1024.44 1024.56 1024.60
1016.27 1016.53 1016.68 1016.70 1016.59 1016.37 1016.09 1015.81 1015.59 1015.47 1015.50 1015.67 1015.96 1016.33 1016.74 1017.14 1017.52 1017.86 1018.17 1018.48 1018.82 1019.19 1019.62 1020.09 1020.57 1021.03 1021.46 1021.82 1022.11 1022.37 1022.59 1022.81 1023.03 1023.26 1023.49 1023.70 1023.86 1023.97 1024.02 1024.04 1024.06 1024.11 1024.21 1024.36 1024.55 1024.76 1024.93 1025.05 1025.07
1016.44 1016.62 1016.66 1016.58 1016.39 1016.13 1015.85 1015.62 1015.49 1015.49 1015.63 1015.90 1016.26 1016.67 1017.08 1017.45 1017.78 1018.06 1018.32 1018.59 1018.90 1019.26 1019.69 1020.16 1020.65 1021.12 1021.54 1021.91 1022.22 1022.49 1022.74 1022.99 1023.25 1023.52 1023.79 1024.02 1024.22 1024.35 1024.42 1024.47 1024.50 1024.55 1024.66 1024.80 1024.99 1025.18 1025.35 1025.45 1025.47
1016.35 1016.45 1016.41 1016.26 1016.03 1015.77 1015.54 1015.40 1015.38 1015.50 1015.77 1016.14 1016.56 1017.00 1017.40 1017.74 1018.01 1018.24 1018.44 1018.67 1018.95 1019.30 1019.72 1020.19 1020.68 1021.15 1021.57 1021.94 1022.25 1022.52 1022.78 1023.05 1023.34 1023.65 1023.96 1024.24 1024.48 1024.66 1024.78 1024.85 1024.90 1024.96 1025.05 1025.18 1025.34 1025.51 1025.65 1025.73 1025.75
1016.09 1016.12 1016.02 1015.82 1015.58 1015.35 1015.19 1015.15 1015.24 1015.49 1015.85 1016.30 1016.77 1017.22 1017.61 1017.92 1018.15 1018.33 1018.50 1018.70 1018.96 1019.30 1019.72 1020.19 1020.68 1021.14 1021.56 1021.91 1022.21 1022.47 1022.73 1023.00 1023.31 1023.64 1023.99 1024.33 1024.62 1024.86 1025.02 1025.13 1025.20 1025.27 1025.35 1025.45 1025.58 1025.71 1025.82 1025.90 1025.91
1015.78 1015.74 1015.60 1015.38 1015.16 1014.98 1014.89 1014.93 1015.11 1015.44 1015.86 1016.35 1016.84 1017.28 1017.65 1017.93 1018.13 1018.29 1018.45 1018.64 1018.91 1019.26 1019.69 1020.17 1020.66 1021.12 1021.52 1021.86 1022.13 1022.37 1022.61 1022.87 1023.18 1023.52 1023.90 1024.27 1024.62 1024.91 1025.13 1025.29 1025.39 1025.46 1025.53 1025.61 1025.70 1025.80 1025.88 1025.95 1025.98
1015.52 1015.43 1015.26 1015.06 1014.86 1014.73 1014.69 1014.79 1015.02 1015.38 1015.81 1016.29 1016.75 1017.17 1017.50 1017.76 1017.95 1018.10 1018.27 1018.49 1018.78 1019.16 1019.61 1020.11 1020.61 1021.07 1021.46 1021.79 1022.04 1022.26 1022.47 1022.70 1022.99 1023.33 1023.71 1024.11 1024.49 1024.83 1025.10 1025.30 1025.43 1025.52 1025.59 1025.66 1025.73 1025.80 1025.87 1025.93 1025.97
1015.37 1015.27 1015.11 1014.92 1014.77 1014.68 1014.68 1014.80 1015.03 1015.35 1015.74 1016.15 1016.55 1016.90 1017.20 1017.42 1017.61 1017.78 1017.98 1018.23 1018.56 1018.97 1019.46 1019.98 1020.50 1020.98 1021.38 1021.70 1021.95 1022.15 1022.33 1022.54 1022.79 1023.10 1023.47 1023.87 1024.27 1024.63 1024.95 1025.19 1025.36 1025.49 1025.57 1025.64 1025.71 1025.77 1025.84 1025.90 1025.94
1015.36 1015.27 1015.13 1015.00 1014.90 1014.86 1014.89 1015.00 1015.18 1015.42 1015.70 1016.00 1016.29 1016.55 1016.78 1016.98 1017.16 1017.35 1017.58 1017.87 1018.24 1018.69 1019.20 1019.75 1020.30 1020.81 1021.24 1021.58 1021.85 1022.05 1022.22 1022.40 1022.62 1022.89 1023.22 1023.60 1023.99 1024.37 1024.71 1024.99 1025.21 1025.38 1025.50 1025.60 1025.68 1025.76 1025.83 1025.89 1025.93
1015.42 1015.36 1015.30 1015.24 1015.22 1015.23 1015.28 1015.35 1015.45 1015.58 1015.71 1015.86 1016.02 1016.17 1016.33 1016.49 1016.67 1016.87 1017.13 1017.45 1017.84 1018.31 1018.85 1019.42 1020.00 1020.54 1021.01 1021.40 1021.71 1021.94 1022.12 1022.29 1022.48 1022.72 1023.00 1023.34 1023.70 1024.07 1024.43 1024.75 1025.01 1025.23 1025.41 1025.55 1025.67 1025.77 1025.86 1025.92 1025.95
1015.45 1015.46 1015.50 1015.56 1015.64 1015.71 1015.78 1015.81 1015.82 1015.80 1015.77 1015.76 1015.77 1015.81 1015.89 1016.02 1016.18 1016.40 1016.67 1017.00 1017.40 1017.87 1018.40 1018.98 1019.58 1020.15 1020.68 1021.14 1021.51 1021.81 1022.03 1022.21 1022.39 1022.59 1022.82 1023.11 1023.43 1023.78 1024.14 1024.48 1024.80 1025.07 1025.31 1025.51 1025.68 1025.82 1025.92 1025.99 1026.01
1015.38 1015.50 1015.66 1015.85 1016.04 1016.20 1016.28 1016.27 1016.18 1016.02 1015.84 1015.67 1015.54 1015.48 1015.50 1015.59 1015.76 1015.98 1016.26 1016.58 1016.96 1017.40 1017.90 1018.46 1019.06 1019.66 1020.25 1020.78 1021.24 1021.61 1021.90 1022.12 1022.30 1022.48 1022.68 1022.91 1023.19 1023.51 1023.86 1024.22 1024.56 1024.89 1025.19 1025.44 1025.66 1025.84 1025.98 1026.05 1026.07
1015.19 1015.41 1015.71 1016.05 1016.37 1016.60 1016.70 1016.65 1016.47 1016.18 1015.85 1015.54 1015.30 1015.16 1015.14 1015.23 1015.40 1015.64 1015.91 1016.22 1016.57 1016.95 1017.40 1017.91 1018.48 1019.10 1019.73 1020.33 1020.88 1021.34 1021.71 1021.98 1022.19 1022.36 1022.53 1022.72 1022.95 1023.24 1023.57 1023.93 1024.30 1024.67 1025.02 1025.32 1025.59 1025.81 1025.96 1026.05 1026.07
1014.89 1015.23 1015.68 1016.15 1016.58 1016.87 1016.99 1016.89 1016.62 1016.21 1015.75 1015.33 1015.01 1014.83 1014.80 1014.91 1015.12 1015.39 1015.68 1015.97 1016.26 1016.58 1016.95 1017.39 1017.91 1018.51 1019.15 1019.81 1020.43 1020.98 1021.43 1021.77 1022.01 1022.19 1022.35 1022.51 1022.71 1022.96 1023.27 1023.63 1024.01 1024.40 1024.77 1025.11 1025.41 1025.65 1025.83 1025.93 1025.95
1014.58 1015.04 1015.61 1016.20 1016.70 1017.04 1017.13 1016.98 1016.61 1016.09 1015.53 1015.02 1014.66 1014.47 1014.48 1014.64 1014.92 1015.24 1015.55 1015.84 1016.09 1016.34 1016.61 1016.96 1017.40 1017.95 1018.58 1019.26 1019.93 1020.54 1021.06 1021.46 1021.75 1021.96 1022.11 1022.26 1022.44 1022.66 1022.95 1023.29 1023.67 1024.06 1024.44 1024.79 1025.10 1025.35 1025.54 1025.66 1025.70
1014.38 1014.94 1015.60 1016.27 1016.81 1017.14 1017.19 1016.96 1016.48 1015.85 1015.21 1014.64 1014.26 1014.11 1014.18 1014.43 1014.79 1015.19 1015.55 1015.85 1016.07 1016.25 1016.43 1016.67 1017.02 1017.49 1018.07 1018.73 1019.42 1020.06 1020.63 1021.08 1021.42 1021.65 1021.82 1021.97 1022.14 1022.35 1022.62 1022.94 1023.30 1023.68 1024.04 1024.38 1024.67 1024.91 1025.10 1025.23 1025.29
1014.36 1015.01 1015.74 1016.44 1016.98 1017.26 1017.23 1016.89 1016.30 1015.57 1014.85 1014.25 1013.88 1013.77 1013.93 1014.28 1014.76 1015.25 1015.67 1015.99 1016.20 1016.32 1016.42 1016.56 1016.80 1017.17 1017.68 1018.29 1018.95 1019.60 1020.19 1020.68 1021.05 1021.31 1021.51 1021.68 1021.85 1022.06 1022.32 1022.63 1022.96 1023.30 1023.63 1023.93 1024.18 1024.39 1024.56 1024.69 1024.77
1014.56 1015.28 1016.05 1016.75 1017.25 1017.45 1017.31 1016.85 1016.15 1015.33 1014.55 1013.94 1013.58 1013.54 1013.78 1014.25 1014.83 1015.42 1015.92 1016.27 1016.47 1016.55 1016.58 1016.62 1016.76 1017.03 1017.45 1017.99 1018.60 1019.23 1019.82 1020.32 1020.71 1021.01 1021.24 1021.44 1021.63 1021.85 1022.11 1022.40 1022.70 1023.00 1023.28 1023.52 1023.71 1023.88 1024.01 1024.12 1024.22
1014.92 1015.70 1016.49 1017.16 1017.59 1017.70 1017.45 1016.88 1016.09 1015.20 1014.38 1013.77 1013.45 1013.47 1013.80 1014.36 1015.04 1015.71 1016.27 1016.66 1016.86 1016.92 1016.89 1016.86 1016.91 1017.10 1017.42 1017.88 1018.44 1019.02 1019.59 1020.09 1020.50 1020.82 1021.09 1021.32 1021.54 1021.78 1022.04 1022.32 1022.59 1022.85 1023.06 1023.23 1023.36 1023.46 1023.55 1023.63 1023.71
1015.32 1016.14 1016.93 1017.56 1017.92 1017.94 1017.60 1016.96 1016.10 1015.19 1014.37 1013.78 1013.52 1013.60 1014.00 1014.63 1015.38 1016.10 1016.70 1017.12 1017.34 1017.38 1017.33 1017.25 1017.24 1017.35 1017.61 1018.00 1018.49 1019.03 1019.57 1020.06 1020.48 1020.82 1021.11 1021.38 1021.63 1021.89 1022.16 1022.43 1022.68 1022.89 1023.04 1023.14 1023.20 1023.22 1023.25 1023.28 1023.34
1015.61 1016.47 1017.24 1017.83 1018.13 1018.08 1017.69 1017.01 1016.15 1015.26 1014.49 1013.97 1013.77 1013.91 1014.37 1015.05 1015.82 1016.57 1017.19 1017.62 1017.85 1017.90 1017.84 1017.75 1017.72 1017.79 1018.01 1018.36 1018.80 1019.30 1019.81 1020.28 1020.70 1021.05 1021.36 1021.65 1021.93 1022.20 1022.48 1022.74 1022.97 1023.13 1023.24 1023.27 1023.26 1023.21 1023.17 1023.15 1023.17
1015.68 1016.54 1017.29 1017.83 1018.08 1018.00 1017.60 1016.95 1016.15 1015.35 1014.68 1014.25 1014.14 1014.35 1014.85 1015.55 1016.33 1017.08 1017.69 1018.12 1018.35 1018.42 1018.38 1018.32 1018.30 1018.39 1018.60 1018.93 1019.35 1019.83 1020.31 1020.76 1021.16 1021.52 1021.83 1022.13 1022.42 1022.70 1022.98 1023.23 1023.43 1023.56 1023.62 1023.60 1023.52 1023.42 1023.32 1023.24 1023.21
1015.47 1016.30 1017.01 1017.49 1017.70 1017.62 1017.25 1016.68 1016.00 1015.34 1014.82 1014.53 1014.53 1014.82 1015.36 1016.06 1016.82 1017.54 1018.14 1018.56 1018.81 1018.91 1018.92 1018.92 1018.96 1019.09 1019.34 1019.68 1020.11 1020.57 1021.03 1021.46 1021.84 1022.18 1022.49 1022.77 1023.05 1023.33 1023.59 1023.83 1024.01 1024.11 1024.13 1024.07 1023.95 1023.80 1023.65 1023.52 1023.45
1015.01 1015.77 1016.39 1016.80 1016.98 1016.90 1016.60 1016.14 1015.62 1015.14 1014.81 1014.69 1014.82 1015.19 1015.77 1016.47 1017.21 1017.90 1018.47 1018.90 1019.17 1019.33 1019.42 1019.50 1019.64 1019.85 1020.16 1020.55 1021.00 1021.46 1021.91 1022.31 1022.66 1022.97 1023.25 1023.50 1023.76 1024.01 1024.25 1024.46 1024.61 1024.70 1024.69 1024.61 1024.46 1024.27 1024.09 1023.93 1023.81
1014.39 1015.04 1015.54 1015.86 1015.98 1015.90 1015.67 1015.35 1015.00 1014.72 1014.58 1014.64 1014.91 1015.37 1015.99 1016.70 1017.43 1018.09 1018.66 1019.10 1019.42 1019.65 1019.85 1020.05 1020.30 1020.62 1021.01 1021.46 1021.94 1022.40 1022.84 1023.21 1023.52 1023.79 1024.02 1024.23 1024.44 1024.66 1024.86 1025.04 1025.17 1025.23 1025.22 1025.12 1024.96 1024.76 1024.55 1024.36 1024.21
Thickness
5728 5735 5740 5734 5716 5706 5708 5716 5723 5719 5720 5725 5725 5722 5716 5705 5695 5683 5700 5707 5704 5698 5693 5691 5690 5689 5689 5689 5688 5688 5687 5687 5687 5687 5687 5688 5688 5688 5688 5687 5687 5687 5686 5686 5685 5684 5683 5682 5681
5725 5733 5732 5722 5704 5693 5704 5718 5718 5719 5720 5724 5722 5721 5718 5704 5704 5701 5704 5705 5702 5697 5693 5690 5689 5688 5687 5687 5686 5685 5685 5684 5684 5684 5684 5684 5684 5684 5684 5684 5683 5683 5682 5682 5681 5680 5679 5678 5677
5723 5729 5718 5710 5701 5699 5706 5719 5719 5719 5724 5724 5719 5721 5714 5704 5705 5704 5706 5706 5702 5697 5693 5689 5688 5687 5686 5685 5684 5683 5683 5682 5682 5682 5681 5681 5681 5681 5680 5680 5679 5679 5679 5678 5677 5676 5675 5674 5673
5717 5717 5715 5703 5699 5713 5718 5723 5722 5716 5719 5725 5722 5712 5709 5712 5713 5710 5709 5706 5702 5696 5692 5688 5687 5686 5685 5684 5683 5682 5681 5680 5680 5679 5679 5679 5678 5678 5677 5677 5676 5676 5675 5674 5673 5672 5671 5670 5670
5712 5705 5696 5692 5703 5717 5725 5728 5726 5716 5715 5720 5722 5709 5701 5710 5715 5712 5709 5706 5701 5696 5691 5688 5686 5685 5684 5683 5682 5681 5680 5679 5678 5678 5677 5676 5676 5675 5675 5674 5673 5673 5672 5671 5670 5669 5667 5666 5666
5697 5699 5686 5685 5702 5716 5722 5728 5727 5721 5720 5721 5721 5712 5700 5710 5711 5710 5710 5706 5702 5697 5691 5688 5686 5684 5683 5682 5681 5680 5679 5678 5677 5676 5675 5675 5674 5673 5673 5672 5671 5670 5669 5668 5667 5665 5664 5663 5662
5688 5688 5685 5694 5701 5709 5717 5727 5725 5721 5718 5720 5726 5713 5702 5708 5711 5711 5710 5707 5702 5697 5692 5689 5686 5684 5683 5682 5681 5680 5678 5677 5676 5675 5674 5673 5673 5672 5671 5670 5669 5668 5666 5665 5664 5663 5661 5660 5659
5694 5689 5687 5694 5699 5705 5717 5723 5728 5725 5721 5728 5729 5715 5704 5710 5713 5712 5710 5707 5703 5698 5694 5691 5688 5686 5683 5682 5680 5679 5678 5677 5675 5674 5673 5672 5671 5670 5669 5668 5667 5665 5664 5663 5661 5660 5659 5657 5656
5692 5679 5681 5695 5702 5707 5715 5716 5722 5728 5723 5723 5723 5718 5721 5718 5714 5709 5706 5704 5701 5699 5697 5694 5691 5688 5686 5683 5681 5679 5678 5676 5675 5674 5673 5672 5670 5669 5668 5666 5665 5663 5662 5660 5659 5658 5656 5655 5654
5681 5672 5688 5709 5716 5714 5713 5715 5715 5716 5713 5712 5712 5714 5719 5716 5711 5706 5704 5702 5700 5698 5698 5696 5694 5691 5688 5685 5682 5680 5678 5676 5675 5674 5673 5672 5671 5669 5666 5664 5663 5661 5660 5658 5657 5656 5655 5653 5652
5681 5681 5697 5709 5715 5718 5712 5715 5718 5713 5707 5713 5711 5709 5712 5711 5709 5707 5706 5705 5702 5701 5699 5698 5696 5694 5691 5687 5684 5682 5680 5678 5677 5675 5673 5672 5670 5668 5666 5663 5661 5660 5659 5657 5656 5655 5654 5653 5651
5680 5688 5698 5704 5707 5713 5712 5715 5714 5716 5717 5727 5728 5719 5714 5710 5710 5709 5708 5707 5705 5703 5700 5699 5697 5695 5692 5689 5687 5685 5682 5680 5679 5676 5674 5672 5670 5668 5666 5664 5662 5660 5659 5657 5655 5654 5653 5651 5650
5674 5683 5693 5697 5700 5708 5711 5709 5711 5714 5719 5724 5725 5718 5714 5712 5712 5714 5713 5711 5709 5705 5703 5700 5698 5696 5693 5691 5689 5686 5684 5681 5680 5677 5675 5673 5671 5669 5667 5665 5663 5661 5659 5657 5655 5653 5652 5650 5648
5676 5682 5686 5690 5694 5700 5701 5705 5706 5712 5718 5717 5718 5715 5715 5714 5715 5714 5714 5713 5711 5709 5706 5703 5699 5697 5694 5692 5690 5687 5685 5683 5681 5678 5676 5674 5672 5670 5668 5665 5663 5661 5659 5657 5655 5653 5651 5649 5647
5675 5671 5674 5681 5687 5692 5696 5689 5698 5714 5716 5712 5713 5715 5717 5718 5718 5717 5718 5717 5715 5712 5710 5706 5701 5698 5695 5692 5690 5688 5686 5684 5681 5679 5676 5674 5672 5670 5668 5665 5663 5661 5658 5656 5653 5651 5649 5647 5645
5662 5660 5655 5672 5682 5684 5683 5678 5700 5710 5710 5708 5711 5714 5716 5719 5721 5722 5722 5721 5719 5716 5712 5708 5704 5699 5696 5693 5690 5688 5686 5684 5681 5679 5676 5674 5671 5669 5667 5664 5662 5659 5657 5654 5651 5649 5647 5644 5642
5646 5646 5652 5661 5676 5678 5678 5682 5697 5706 5706 5706 5710 5714 5715 5717 5720 5723 5725 5724 5722 5719 5715 5710 5706 5701 5697 5693 5690 5687 5685 5683 5681 5678 5676 5673 5671 5668 5666 5663 5661 5658 5655 5652 5649 5646 5643 5641 5639
5639 5647 5653 5655 5666 5672 5671 5680 5691 5699 5701 5703 5708 5713 5715 5716 5718 5723 5725 5725 5723 5720 5717 5712 5707 5702 5698 5693 5689 5686 5684 5682 5680 5677 5675 5673 5670 5667 5664 5662 5659 5656 5652 5649 5646 5642 5640 5637 5635
5651 5651 5655 5661 5664 5667 5667 5675 5687 5694 5695 5698 5704 5710 5713 5716 5722 5724 5724 5723 5721 5718 5716 5713 5708 5703 5699 5694 5690 5686 5683 5681 5678 5676 5674 5671 5668 5665 5662 5659 5656 5653 5649 5646 5642 5638 5635 5632 5628
5644 5645 5651 5645 5655 5659 5663 5669 5684 5694 5697 5701 5704 5708 5712 5715 5717 5719 5719 5718 5717 5715 5714 5712 5709 5705 5701 5697 5692 5688 5684 5681 5678 5675 5672 5669 5666 5664 5660 5657 5653 5650 5646 5642 5638 5634 5630 5627 5622
5637 5642 5647 5640 5642 5650 5653 5656 5672 5690 5699 5704 5708 5711 5714 5714 5713 5712 5712 5712 5711 5710 5710 5710 5708 5705 5701 5696 5691 5686 5682 5679 5675 5673 5670 5667 5664 5661 5657 5654 5650 5646 5642 5638 5634 5629 5624 5620 5616
5629 5646 5648 5637 5633 5632 5640 5636 5674 5687 5690 5696 5700 5703 5707 5710 5710 5708 5707 5706 5705 5705 5705 5705 5704 5702 5699 5695 5690 5684 5680 5676 5674 5671 5668 5664 5661 5657 5654 5649 5645 5641 5637 5633 5629 5625 5620 5615 5610
5628 5638 5638 5635 5634 5631 5634 5633 5657 5686 5683 5689 5694 5697 5699 5701 5701 5700 5699 5698 5698 5698 5698 5698 5698 5697 5695 5692 5687 5682 5677 5673 5670 5667 5664 5660 5657 5653 5648 5644 5640 5636 5632 5628 5623 5619 5614 5609 5605
5619 5622 5622 5625 5620 5607 5628 5626 5644 5669 5683 5691 5692 5692 5692 5691 5691 5690 5689 5689 5688 5689 5689 5690 5690 5689 5688 5685 5681 5676 5671 5667 5663 5660 5656 5653 5649 5645 5641 5637 5633 5629 5625 5621 5617 5612 5607 5602 5597
5613 5603 5587 5586 5584 5595 5628 5628 5643 5679 5688 5690 5686 5683 5682 5682 5681 5679 5679 5678 5678 5679 5680 5680 5680 5679 5678 5676 5672 5669 5664 5660 5656 5652 5648 5643 5639 5635 5631 5628 5624 5620 5616 5612 5608 5604 5599 5594 5589
5606 5610 5587 5579 5580 5594 5606 5614 5644 5671 5675 5678 5678 5675 5673 5672 5670 5669 5669 5668 5667 5669 5670 5670 5669 5668 5667 5664 5661 5658 5654 5650 5646 5641 5637 5632 5627 5623 5620 5616 5613 5609 5605 5601 5597 5593 5588 5584 5579
5599 5603 5615 5593 5586 5589 5595 5619 5647 5657 5661 5664 5665 5664 5662 5661 5660 5658 5658 5657 5657 5657 5658 5658 5657 5656 5654 5652 5649 5646 5642 5638 5633 5629 5624 5620 5615 5611 5607 5604 5600 5596 5592 5588 5584 5580 5576 5571 5567
5604 5606 5589 5582 5573 5579 5601 5614 5632 5650 5652 5654 5655 5654 5653 5651 5649 5647 5646 5645 5645 5645 5645 5645 5644 5642 5640 5638 5635 5631 5628 5624 5619 5615 5610 5606 5601 5598 5594 5590 5586 5582 5578 5574 5570 5566 5562 5557 5553
5591 5594 5597 5593 5586 5581 5587 5610 5651 5658 5658 5654 5651 5649 5646 5642 5638 5636 5634 5633 5632 5632 5632 5630 5629 5628 5625 5623 5620 5617 5613 5609 5605 5600 5595 5591 5587 5583 5579 5575 5571 5567 5563 5559 5555 5551 5547 5543 5539
5594 5599 5600 5587 5585 5596 5593 5609 5640 5648 5652 5650 5645 5642 5637 5633 5629 5625 5623 5622 5620 5619 5618 5617 5615 5613 5611 5608 5605 5601 5597 5593 5589 5584 5580 5576 5572 5568 5564 5560 5556 5551 5547 5543 5539 5535 5531 5527 5523